Simultaneous Nadir Overpasses (SNOs) Predictions

Prediction of SNOs between LANDSAT-8 and NOAA-19 Satellite Orbit:

Table of predicted SNOs for the next 14.0 days since TLE Epoch: 6/24/2023
Index Date (LANDSAT-8) Time (LANDSAT-8) Lat,Lon (LANDSAT-8) SZA (LANDSAT-8 ) Date (NOAA-19) Time (NOAA-19) Lat,Lon (NOAA-19) SZA (NOAA-19 ) Distance(km) Time Diff (sec)
1 06/24/2023 11:01:10 -80.93,-128.03 120.60 06/24/2023 11:00:16 -80.94,-128.10 120.62 1.57 54
2 06/24/2023 11:50:36 80.94, 39.72 59.42 06/24/2023 11:51:18 80.94, 39.70 59.44 0.45 42
3 06/26/2023 17:24:23 -80.94, 136.21 120.54 06/26/2023 17:23:44 -80.94, 136.10 120.56 1.99 39
4 06/26/2023 18:13:49 80.94, -56.06 59.48 06/26/2023 18:14:46 80.95, -55.97 59.51 1.60 57
5 06/28/2023 23:47:35 -80.95, 40.66 120.42 06/28/2023 23:47:11 -80.94, 40.62 120.44 1.34 24
6 06/29/2023 00:37:01 80.96,-151.63 59.60 06/29/2023 00:38:14 80.95,-151.72 59.61 2.17 73
7 07/01/2023 06:10:48 -80.94, -55.40 120.34 07/01/2023 06:10:39 -80.94, -55.30 120.33 2.02 9
8 07/03/2023 12:34:00 -80.93,-151.26 120.19 07/03/2023 12:34:07 -80.94,-151.28 120.18 1.29 7
9 07/05/2023 18:07:44 80.94, -54.59 60.01 07/05/2023 18:06:41 80.94, -54.75 59.97 2.91 63
10 07/05/2023 18:57:11 -80.94, 113.08 119.98 07/05/2023 18:57:34 -80.94, 113.05 119.97 0.54 23
11 07/08/2023 00:30:55 80.94,-150.41 60.23 07/08/2023 00:30:08 80.94,-150.47 60.21 1.09 47



Historial Predications of SNOs between LANDSAT-8 and NOAA-19
